Content
SEND FEEDBACK

Daily
Averages
Monthly
Summary
United States of America

YIGO, GUAM


Home > North America > United States > Guam
Elevation: 530 feet     Latitude: 13 32N     Longitude: 144 53E

WEATHER
 
SELECT A DAY
Number of Records: 215,809;   Date Range: 1/1/95 - 12/27/14
 
SHARE

PRINT THIS DATA

[ ← Previous Day ]
WEATHER ALMANAC - DECEMBER 26, 2013
[ Next Day → ]
[ °C ]   °F
Weather ElementAverageHighLow
Temperature81.5 °F86 °F (11:54 am)78.1 °F (1:54 am)
Dewpoint73.9 °F77 °F (2:30 am)72 °F (6:54 am)
Humidity78.1 %94 % (2:30 am)65 % (11:54 am)
Barometer29.87 in29.93 in (8:54 am)29.81 in (3:54 pm)
Wind Speed17.8 mph23 mph (2:54 am)
Wind Gust31.1 mph (12:54 pm)
Weather ElementAverage
Visibility9.4 mi
Wind DirectionENE (71.6 °)

Weather ElementTotal
Precipitation0.24 in
Cooling Degree Days17.1 (Base 65)
Growing Degree Days32.1 (Base 50)
Averaged from 31 records on December 26, 2013
WEATHER CONDITIONS BREAKOUT
WIND DIRECTION BREAKOUT
WEATHER BY HOUR - DECEMBER 26, 2013
[ °C ]   °F
Local TimeTemperatureDewpointHumidityBarometerVisibilityWind DirectionWind SpeedGust SpeedPrecipitationEventsConditions
1:21 AM78.8 °F75.2 °F89 %29.90 in10.0 miENE (70°)17.3 mphOvercast
1:50 AM78.8 °F75.2 °F89 %29.89 in10.0 miENE (70°)18.4 mph29.9 mph0.01 inRainRain
1:54 AM78.1 °F75.0 °F90 %29.87 in10.0 miENE (70°)16.1 mph0.01 inRainRain
2:30 AM78.8 °F77.0 °F94 %29.89 in4.0 miENE (60°)12.7 mph19.6 mph0.02 inRainRain
2:37 AM78.8 °F75.2 °F89 %29.88 in5.0 miENE (60°)20.7 mph28.8 mph0.06 inRainRain
2:41 AM78.8 °F75.2 °F89 %29.88 in7.0 miENE (70°)17.3 mph28.8 mph0.06 inRainRain
2:54 AM78.1 °F75.9 °F93 %29.86 in6.0 miENE (70°)23.0 mph27.6 mph0.08 inRainRain
3:54 AM78.1 °F75.9 °F93 %29.85 in10.0 miENE (70°)17.3 mph0.00 inRainRain
4:54 AM79.0 °F75.0 °F88 %29.85 in10.0 miENE (70°)18.4 mph29.9 mph0.00 inRainRain
5:54 AM79.0 °F75.0 °F88 %29.87 in10.0 miENE (70°)17.3 mph25.3 mph0.00 inRainRain
6:54 AM79.0 °F72.0 °F79 %29.89 in10.0 miEast (80°)17.3 mph26.5 mph0.00 inClear
7:54 AM80.1 °F73.0 °F79 %29.91 in10.0 miENE (70°)16.1 mph23.0 mph0.00 inMostly Cloudy
8:54 AM81.0 °F75.0 °F82 %29.93 in10.0 miENE (70°)17.3 mph26.5 mphMostly Cloudy
9:54 AM82.9 °F73.0 °F72 %29.93 in10.0 miEast (90°)19.6 mph26.5 mphPartly Cloudy
10:54 AM84.0 °F73.0 °F69 %29.92 in10.0 miEast (90°)18.4 mph28.8 mphPartly Cloudy
11:54 AM86.0 °F73.0 °F65 %29.90 in10.0 miEast (80°)13.8 mphPartly Cloudy
12:16 PM86.0 °F73.4 °F66 %29.91 in10.0 miENE (70°)18.4 mphMostly Cloudy
12:41 PM86.0 °F73.4 °F66 %29.89 in10.0 miENE (70°)21.9 mph27.6 mphScattered Clouds
12:54 PM86.0 °F73.9 °F67 %29.87 in10.0 miENE (60°)20.7 mph31.1 mphMostly Cloudy
1:25 PM84.2 °F73.4 °F70 %29.87 in10.0 miENE (70°)20.7 mph29.9 mphScattered Clouds
1:54 PM84.9 °F73.9 °F69 %29.83 in10.0 miENE (70°)21.9 mph28.8 mphClear
2:54 PM84.9 °F73.0 °F67 %29.82 in10.0 miEast (80°)18.4 mph26.5 mphScattered Clouds
3:54 PM84.0 °F73.0 °F69 %29.81 in10.0 miENE (70°)21.9 mph26.5 mphPartly Cloudy
4:54 PM82.9 °F72.0 °F69 %29.82 in10.0 miENE (70°)20.7 mph26.5 mphPartly Cloudy
5:54 PM82.0 °F72.0 °F71 %29.83 in10.0 miENE (70°)18.4 mph25.3 mphPartly Cloudy
6:54 PM82.0 °F73.0 °F74 %29.85 in10.0 miENE (70°)15.0 mphMostly Cloudy
7:54 PM82.0 °F73.0 °F74 %29.86 in10.0 miENE (70°)17.3 mph23.0 mphMostly Cloudy
8:54 PM81.0 °F73.0 °F77 %29.87 in10.0 miENE (70°)15.0 mph23.0 mphPartly Cloudy
9:54 PM81.0 °F73.9 °F79 %29.87 in10.0 miENE (70°)11.5 mphClear
10:54 PM81.0 °F73.0 °F77 %29.87 in10.0 miENE (70°)15.0 mphPartly Cloudy
11:54 PM80.1 °F73.0 °F79 %29.87 in10.0 miEast (80°)13.8 mph25.3 mphScattered Clouds
Hourly data recorded from PGUM, located miles away from Yigo, Guam







STORIES FROM OUR PARTNERS